NapervilleWeather.com

Find the Weather for any City, State  
or Zipcode, or Country:

Naperville, IL Weather
Local Radar

Local Radar

Graphs, Details
Graphs and Gauges
Detailed Weather
Detailed Reports
Ajax Version (old)
Davis Summary
Davis Current Weather Graphs
Davis 24 Hour Weather History
Cumulus

CW7164 Data

Weather Underground
www.awekas.at
Automatic Weather Map System
Latest Naperville, Illinois, weather
Weather For You
Maps
Temperature
Heat Index
Windchill
Humidity
Radar
Dew Point
Wind
Visibility
Visible Satellite
Satellite
Fronts
Snow Depth
Jet Stream
Flight Rules
Forecast Maps
Temperature Forecast
Maximum Temperature Forecast
Minimum Temperature Forecast
Dewpoint Forecast
Prevalent Weather
12Hr Probability of Precip.
Sky Cover
Health Maps
UV Forecast
Air Quality
Peak Air Quality Index
Weather Station
Davis Instruments Vantage Pro2
Current Conditions [Select Refresh to Update]

Updated: 10:54am on 8/1/14

(location)
Currently:
75.8°F

Clear
Scattered Clouds

High: 75.8 °F< 
(10:53am
Low: 61.2 °F 
(4:50am)
Wind: NW 0 mph
Calm
Gust: 0 mph
Today's High Wind: 1 mph (7:33am)
Humidity: 68%
Pressure: 30.09 in  (Steady
Pressure Rate: 0.006 in/hr
Dew Point: 64.5°F
Wind Chill: 75.8 °F
Heat Index (feels like): 78.5 °F
Comfort Level: Comfortable
Temperature Rate:  2.75°F/hr
 
5 Day Forecast
 
Fri Sat Sun Mon Tue
Clear Clear Clear Clear Clear
Chance T-storms Chance T-storms Partly Cloudy Chance T-storms Chance T-storms
82 82 84 84 81
57 57 63 64 63

Records and Normals
 
Temperature Forecast Normal Record
High 82 84 96
(2006)
Low 57 62 51
(1998)
 
 
Weather Advisories
No Warnings
Full Advisory Text...
Weather Map

Web Cam

Almanac
 
Sunrise:  
5:48am
Moonrise: 
11:16am

Moon Phase:
26%

Sunset: 
8:12pm
Moonset:  
10:49pm
 Star Chart...
Rainfall Totals
Hourly Rain 0.00 in
Daily Rain: 0.00 in
Monthly Rain: 0.00 in
Yearly Rain: 22.97 in
Normal Rain, month to date: 2.18 in
Normal Rain, year to date: 16.76 in
Local Weather Exchange Network
Station ID City 
(Click for Map Location)
Neighborhood 
(Click for History)
Last Update (Date & Time) Temperature
 ()
Dew
Point ()
Humidity 
(%)
Wind 
(mph)
from the Wind Gust 
(mph) 
Pressure(in) Hourly
Rain(in)
KILNAPER15 Naperville Indian Hill Near Jefferson JHS 08/01 10:49:44 74.4 64.0 71 1 WSW 3 30.06 0.00
KILNAPER25 Naperville brushhill-w 08/01 10:47:39 75.4 64.0 67 0 WSW 3 30.05 0.00
KILNAPER24 Naperville Brush Hill 08/01 10:40:37 76.8 65.0 67 0 SW 5 30.01 0.00
KILWARRE4 Warrenville Cerny Park 08/01 10:45:09 78.3 67.0 69 0 South 2 30.25 0.00
KILNAPER19 Naperville Brookdale Lakes 08/01 10:49:49 78.9 67.0 67 3 East 5 30.06 0.00
KILNAPER7 Naperville NapervilleWeather.com Near Ogden and Naper Blvd 08/01 10:49:53 75.6 64.0 67 0 NW 0 30.09 0.00
KILWARRE2 Warrenville Warrenville Neighborhood Weather 08/01 10:49:57 76.5 64.0 66 1 NNW 6 30.05 0.00
KILNAPER23 Naperville Naper Blvd at BNSF RR 08/01 10:49:56 76.9 65.0 67 0 WNW 2 30.08 0.00
KILNAPER9 Naperville 75th St. / Modaff Area 08/01 10:49:55 78.5 68.0 71 0 SSE 1 30.06 0.00
KILWHEAT8 Wheaton Wheaton Sanitary District 08/01 10:35:10 76.5 64.0 66 0 West 3 30.07 0.00
KILWHEAT11 Wheaton Wheaton SW Orth Ct 08/01 10:49:49 74.7 64.0 69 0 NNE 0 30.21 0.00
KILLOMBA6 Wheaton Danada West 08/01 10:49:14 76.0 59.0 55 3 SSW 4 30.09 0.00
KILNAPER16 Naperville SE Naperville / NE Clow Arpt 08/01 10:49:53 80.9 67.0 63 2 WNW 4 30.08 0.00
KILNAPER22 Naperville Willow Ridge 08/01 10:44:49 74.1 71.0 90 0 WSW 0 29.91 0.00
KILWHEAT5 Wheaton N9ABF - West Wheaton 08/01 10:45:22 76.5 62.0 62 0 SSW 0 30.07 0.00
KILWINFI2 Winfield Winfield Heights (SarahNet) 08/01 10:46:53 76.1 61.0 59 0 South 6 30.06 0.00
KILWOODR4 Woodridge Woodridge Neighborhood Weather 08/01 10:41:36 80.9 64.0 56 0 WSW 3 30.05 0.00
KILWINFI3 Winfield Fredericksburg Farm 08/01 10:49:55 77.5 62.0 58 0 South 3 29.99 0.00
KILWHEAT10 Wheaton Wheaton College 08/01 10:45:16 78.3 61.0 55 3 SW 6 30.05 0.00
KILWOODR2 Woodridge Woodridge 08/01 10:49:51 80.5 65.0 60 4 West 4 29.95 0.00
KILWOODR1 Woodridge 75th Street/ Janes Ave 08/01 10:49:52 79.5 69.0 71 2 NE 2 29.33 0.00
KILBATAV5 Batavia Fermi National Accelerator Laboratory 08/01 10:38:04 78.1 63.0 60 5 SSW 6 30.03 0.00
KILBOLIN15 Bolingbrook Winding Meadows 08/01 10:49:50 78.5 56.0 46 2 SE 5 30.12 0.00
KILBOLIN20 Bolingbrook Bolingbrook - Royce Road 08/01 10:49:52 82.4 62.0 50 4 SW 6 29.42 0.00
KILDOWNE3 Downers Grove Maple Woods West 08/01 10:49:56 78.8 66.0 65 1 NW 2 30.11 0.00
KILBOLIN12 Bolingbrook UnderTheThunder HQ 08/01 10:43:01 79.4 65.0 62 5 South 6 30.07 0.00
KILBOLIN13 Bolingbrook UnderTheThunder.org Van 08/01 10:46:50 81.0 65.0 59 0 SW 1 30.02 0.00
KILAUROR22 Aurora Lakewood Valley 08/01 10:43:22 78.1 68.0 71 3 West 0 29.85 0.00
KILNAPER4 Naperville 1.1 mi.West. of Rt 59 & 103rd St. 08/01 10:49:32 73.8 67.0 79 0 North 0 30.00 0.00
KILCHICA63 Glen Ellyn Glen Ellyn Neighborhood Weather 08/01 10:47:57 74.5 0.0 0 0 North 0 0.00 0.00
KILAUROR23 Aurora Summerlin 08/01 10:46:04 79.2 65.0 61 6 West 0 29.93 0.00
KILGLENE7 Glen Ellyn Glen Ellyn Civic Center 08/01 10:35:08 78.9 60.0 53 1 SSW 9 30.11 0.00
KILDOWNE6 Downers Grove DGMidTown 08/01 10:36:17 79.5 63.0 58 2 NNW 0 29.96 0.00
KILBOLIN8 Bolingbrook Bolingbrook Neighborhood Weather 08/01 10:49:50 80.9 66.0 61 0 SSW 2 30.08 0.00
KILBOLIN16 Bolingbrook Huntington Estates 08/01 10:49:52 78.6 63.0 59 4 WNW 7 30.06 0.00
KILWESTC8 West Chicago Ingalton Hills Estates 08/01 10:49:52 78.0 60.0 54 3 South 3 30.10 0.00
KDPA Chicago DuPage Official Station 08/01 09:52:00 77.0 60.0 56 5 Variable --- 30.08 ---
KLOT Romeoville Official Station 08/01 10:35:00 75.0 64.0 67 6 South --- 30.10 ---
KARR Aurora Official Station 08/01 09:52:00 74.0 61.0 64 7 SW --- 30.09 ---
KJOT Joliet Official Station 08/01 10:35:00 76.0 60.0 57 5 South --- 30.11 ---
Full Advisory Text
No Warnings

Ambient Weather and Weather Underground
 Never base important decisions on this or any weather information obtained from the Internet
Updated Automatically by Ambient Weather's Virtual Weather Station  V14.01